Temp
-23 -22 -22 -22 -22 -22 -22 -21 -21 -21 -22 -21 -20 -19 -18 -18 -18 -18 -17 -16 -16 -16 -16 -16 -16 -16 -16 -15 -15 -16 -16 -16 -15 -15 -15 -15 -14 -14 -14 -14 -13 -14 -13 -13
-23 -24 -24 -23 -23 -22 -23 -22 -22 -23 -22 -22 -22 -20 -20 -19 -18 -18 -18 -17 -17 -17 -16 -16 -16 -16 -16 -16 -16 -16 -16 -16 -16 -15 -15 -16 -15 -15 -14 -14 -15 -13 -14 -14
-24 -24 -24 -24 -24 -23 -24 -24 -24 -24 -24 -23 -23 -22 -21 -19 -19 -19 -19 -18 -17 -17 -17 -17 -17 -17 -17 -17 -17 -17 -17 -17 -16 -16 -16 -16 -16 -16 -15 -15 -15 -15 -14 -14
-25 -24 -24 -25 -24 -24 -23 -24 -24 -24 -24 -23 -23 -22 -21 -21 -20 -20 -19 -19 -18 -18 -18 -17 -18 -18 -18 -18 -18 -17 -17 -17 -17 -17 -16 -16 -17 -16 -16 -15 -16 -15 -15 -15
-26 -26 -26 -27 -26 -26 -26 -25 -25 -24 -24 -24 -24 -23 -21 -22 -21 -21 -21 -20 -20 -19 -18 -18 -18 -19 -19 -18 -18 -18 -18 -18 -18 -18 -17 -17 -17 -17 -17 -16 -16 -16 -17 -16
-28 -28 -28 -27 -27 -26 -26 -26 -26 -25 -25 -25 -23 -24 -22 -22 -22 -21 -22 -21 -21 -20 -20 -19 -19 -20 -19 -19 -19 -19 -19 -18 -18 -18 -18 -18 -17 -17 -17 -17 -17 -17 -16 -16
-29 -28 -28 -27 -27 -27 -26 -26 -26 -26 -26 -24 -25 -26 -24 -24 -23 -22 -23 -23 -22 -22 -21 -21 -21 -20 -20 -20 -20 -20 -20 -19 -19 -19 -19 -19 -18 -17 -17 -18 -18 -18 -18 -17
-29 -29 -28 -28 -28 -27 -27 -27 -27 -27 -27 -26 -27 -27 -25 -25 -24 -24 -24 -24 -24 -24 -23 -23 -22 -22 -22 -21 -21 -21 -21 -21 -20 -20 -19 -20 -19 -19 -18 -18 -18 -18 -18 -18
-30 -29 -29 -29 -29 -28 -28 -28 -28 -28 -28 -28 -28 -28 -28 -27 -27 -27 -26 -26 -25 -25 -25 -24 -23 -24 -23 -23 -23 -22 -22 -22 -22 -21 -20 -20 -20 -20 -19 -19 -19 -19 -19 -18
-30 -30 -30 -30 -30 -30 -29 -29 -29 -29 -29 -29 -29 -29 -28 -28 -28 -28 -27 -27 -27 -27 -27 -26 -25 -25 -25 -25 -25 -24 -24 -23 -23 -22 -22 -21 -21 -21 -20 -20 -20 -19 -19 -19
-31 -30 -30 -30 -30 -30 -30 -30 -30 -30 -30 -30 -30 -29 -29 -29 -29 -28 -28 -28 -28 -28 -27 -27 -27 -26 -26 -26 -26 -25 -25 -24 -24 -23 -23 -22 -22 -22 -22 -21 -21 -21 -20 -20
-31 -31 -31 -31 -31 -31 -31 -31 -31 -30 -31 -31 -30 -30 -29 -29 -29 -29 -28 -28 -28 -28 -28 -27 -27 -27 -26 -26 -26 -26 -26 -25 -25 -24 -24 -23 -23 -23 -22 -22 -22 -22 -21 -21
-31 -31 -31 -31 -31 -31 -31 -31 -31 -31 -31 -31 -31 -31 -30 -29 -29 -30 -29 -29 -28 -28 -28 -28 -27 -27 -27 -26 -26 -26 -26 -26 -25 -25 -25 -24 -24 -23 -23 -23 -23 -22 -22 -21
-32 -32 -32 -32 -32 -31 -31 -31 -31 -31 -31 -31 -31 -31 -31 -30 -30 -30 -30 -29 -29 -29 -28 -28 -28 -27 -27 -27 -26 -26 -26 -26 -26 -26 -25 -25 -24 -24 -24 -23 -23 -23 -22 -22
-32 -32 -32 -32 -32 -32 -32 -32 -31 -31 -31 -32 -31 -31 -31 -31 -31 -31 -30 -30 -29 -29 -29 -28 -28 -28 -27 -27 -27 -27 -26 -26 -26 -26 -25 -25 -25 -25 -25 -24 -24 -23 -23 -23
-32 -32 -32 -32 -32 -32 -32 -32 -32 -32 -32 -32 -31 -32 -31 -31 -31 -31 -31 -30 -30 -29 -29 -29 -28 -28 -28 -27 -27 -27 -27 -26 -26 -26 -26 -26 -25 -25 -25 -25 -25 -24 -24 -23
-32 -32 -32 -32 -32 -32 -32 -32 -32 -32 -32 -32 -32 -32 -32 -32 -32 -32 -31 -31 -31 -30 -30 -29 -29 -29 -28 -28 -28 -27 -27 -27 -27 -26 -26 -26 -26 -26 -25 -25 -25 -25 -25 -24
-31 -32 -32 -32 -32 -32 -32 -32 -32 -32 -32 -32 -32 -32 -32 -32 -32 -32 -31 -31 -31 -31 -31 -30 -30 -29 -29 -29 -28 -28 -27 -27 -27 -27 -27 -26 -26 -26 -26 -26 -26 -26 -25 -25
-31 -32 -32 -32 -32 -32 -32 -32 -32 -32 -32 -32 -32 -33 -33 -33 -33 -32 -32 -32 -32 -31 -31 -31 -30 -30 -30 -30 -29 -29 -28 -28 -28 -27 -27 -27 -27 -27 -27 -26 -26 -26 -26 -25
-31 -31 -32 -32 -32 -32 -32 -32 -32 -32 -32 -33 -33 -33 -33 -34 -34 -33 -33 -33 -33 -33 -32 -32 -31 -31 -30 -30 -30 -30 -29 -29 -29 -28 -28 -27 -27 -27 -27 -27 -26 -26 -26 -26
-31 -31 -32 -32 -32 -33 -33 -33 -33 -33 -33 -33 -33 -33 -33 -34 -34 -34 -34 -34 -34 -34 -33 -33 -33 -32 -32 -31 -31 -30 -30 -29 -29 -29 -29 -28 -28 -28 -28 -27 -27 -27 -26 -26
-31 -32 -32 -32 -32 -32 -33 -33 -33 -33 -33 -33 -33 -34 -34 -34 -34 -34 -34 -35 -34 -34 -34 -34 -33 -33 -33 -33 -32 -31 -31 -30 -30 -29 -29 -29 -29 -29 -28 -28 -28 -27 -27 -27
-32 -32 -32 -32 -33 -33 -33 -33 -33 -34 -34 -34 -34 -34 -34 -34 -35 -34 -34 -34 -34 -34 -35 -34 -33 -33 -33 -33 -33 -33 -33 -32 -31 -30 -30 -29 -29 -29 -29 -28 -28 -28 -28 -28
-32 -32 -33 -33 -33 -33 -33 -33 -34 -34 -34 -34 -34 -34 -34 -34 -35 -35 -35 -35 -35 -35 -34 -34 -34 -33 -33 -33 -33 -33 -33 -33 -32 -32 -31 -31 -30 -30 -29 -29 -29 -29 -28 -28
-32 -32 -33 -33 -33 -34 -34 -34 -34 -35 -35 -34 -35 -35 -36 -36 -36 -35 -35 -35 -35 -35 -35 -35 -34 -34 -34 -34 -33 -33 -33 -33 -33 -33 -33 -32 -32 -31 -31 -30 -30 -30 -29 -29
-32 -32 -32 -33 -33 -34 -34 -34 -34 -34 -35 -36 -36 -37 -37 -37 -36 -36 -36 -36 -36 -36 -36 -35 -35 -34 -34 -34 -34 -34 -34 -34 -33 -33 -33 -33 -32 -32 -32 -32 -31 -31 -31 -30
Height
5532 5536 5540 5544 5546 5551 5551 5557 5563 5569 5565 5572 5580 5588 5591 5599 5604 5610 5618 5627 5634 5641 5645 5650 5656 5660 5666 5670 5675 5680 5686 5693 5700 5706 5712 5716 5721 5725 5728 5733 5733 5740 5741 5746
5525 5525 5527 5530 5533 5538 5542 5545 5552 5555 5555 5562 5566 5577 5576 5587 5592 5598 5605 5612 5621 5628 5631 5635 5640 5646 5650 5656 5661 5666 5672 5678 5686 5692 5699 5704 5710 5714 5717 5723 5724 5730 5731 5735
5512 5515 5519 5521 5525 5528 5533 5536 5539 5543 5544 5549 5554 5560 5564 5574 5580 5585 5590 5595 5604 5612 5614 5620 5625 5631 5636 5641 5646 5651 5657 5664 5671 5677 5684 5691 5696 5703 5708 5711 5716 5718 5720 5723
5500 5504 5509 5510 5514 5518 5523 5525 5529 5532 5534 5542 5542 5549 5557 5560 5568 5573 5579 5583 5588 5594 5600 5605 5608 5615 5620 5625 5630 5637 5643 5648 5655 5663 5669 5675 5681 5691 5695 5699 5704 5707 5710 5713
5490 5495 5499 5501 5505 5509 5513 5517 5520 5523 5526 5527 5532 5538 5549 5548 5558 5563 5564 5569 5573 5579 5584 5590 5593 5599 5604 5610 5616 5621 5628 5633 5640 5647 5654 5662 5668 5675 5681 5687 5691 5695 5696 5700
5485 5489 5491 5494 5497 5501 5504 5507 5509 5511 5513 5513 5530 5526 5534 5535 5546 5548 5553 5555 5560 5563 5568 5575 5580 5582 5587 5594 5600 5606 5612 5618 5624 5630 5638 5647 5653 5660 5667 5673 5679 5683 5686 5690
5479 5483 5484 5488 5490 5491 5494 5497 5500 5501 5501 5510 5518 5511 5523 5524 5531 5536 5540 5541 5545 5548 5552 5557 5563 5567 5572 5578 5584 5591 5596 5602 5609 5616 5622 5630 5636 5645 5652 5658 5664 5670 5673 5676
5474 5477 5478 5479 5481 5483 5486 5488 5491 5491 5496 5502 5504 5499 5508 5515 5517 5520 5525 5528 5531 5534 5538 5542 5548 5553 5557 5562 5568 5575 5581 5587 5593 5601 5607 5614 5621 5629 5636 5644 5650 5656 5662 5665
5469 5471 5471 5473 5474 5476 5478 5480 5483 5485 5489 5489 5494 5496 5499 5502 5505 5508 5512 5515 5519 5521 5524 5528 5535 5539 5543 5548 5554 5560 5567 5573 5579 5585 5592 5599 5606 5613 5620 5628 5634 5639 5646 5651
5466 5466 5467 5467 5468 5469 5470 5472 5475 5476 5480 5483 5487 5489 5491 5494 5496 5499 5501 5504 5507 5510 5513 5516 5521 5526 5531 5536 5541 5547 5554 5560 5566 5572 5578 5585 5591 5598 5605 5612 5619 5625 5631 5636
5462 5462 5464 5463 5463 5463 5465 5465 5468 5471 5472 5474 5480 5483 5483 5485 5487 5490 5493 5495 5497 5500 5503 5506 5510 5515 5520 5525 5530 5535 5541 5547 5553 5559 5565 5571 5578 5584 5591 5597 5603 5610 5616 5622
5459 5458 5458 5458 5458 5458 5459 5460 5462 5463 5467 5468 5471 5474 5474 5475 5478 5481 5483 5485 5488 5490 5493 5497 5500 5505 5508 5513 5518 5523 5528 5533 5539 5545 5551 5557 5564 5570 5577 5583 5589 5595 5601 5606
5455 5455 5454 5454 5456 5455 5455 5455 5457 5458 5460 5462 5464 5465 5466 5468 5470 5473 5476 5477 5479 5482 5484 5487 5490 5494 5497 5501 5506 5511 5516 5521 5526 5532 5537 5543 5549 5555 5562 5568 5574 5580 5586 5592
5452 5452 5452 5452 5451 5452 5451 5452 5453 5453 5454 5455 5456 5458 5460 5461 5463 5465 5468 5469 5471 5472 5475 5477 5480 5483 5486 5490 5494 5498 5503 5508 5513 5518 5524 5529 5535 5541 5546 5552 5558 5564 5570 5576
5450 5450 5449 5449 5448 5448 5448 5448 5448 5449 5449 5449 5450 5451 5453 5455 5456 5457 5459 5461 5462 5464 5465 5467 5469 5472 5475 5479 5482 5486 5490 5495 5500 5505 5510 5515 5521 5526 5532 5537 5543 5549 5555 5560
5449 5448 5447 5446 5445 5445 5444 5445 5444 5444 5444 5444 5444 5444 5444 5446 5447 5448 5450 5451 5453 5454 5456 5457 5459 5462 5464 5468 5472 5475 5479 5483 5487 5492 5497 5502 5507 5513 5518 5523 5529 5534 5540 5546
5449 5447 5445 5444 5442 5442 5443 5441 5440 5439 5438 5438 5438 5438 5437 5437 5437 5438 5439 5440 5441 5443 5446 5448 5450 5453 5455 5458 5461 5464 5468 5472 5476 5480 5484 5489 5494 5499 5504 5510 5515 5520 5525 5531
5450 5447 5445 5443 5441 5440 5438 5436 5435 5434 5433 5433 5432 5431 5430 5429 5427 5426 5427 5430 5431 5433 5434 5437 5439 5442 5444 5447 5450 5453 5456 5460 5464 5468 5472 5476 5481 5486 5491 5496 5502 5506 5511 5517
5451 5448 5446 5443 5440 5438 5436 5434 5431 5429 5430 5427 5425 5423 5422 5420 5419 5417 5417 5416 5417 5418 5420 5422 5425 5428 5431 5434 5437 5441 5444 5448 5452 5456 5460 5464 5469 5473 5478 5483 5488 5493 5498 5503
5451 5448 5446 5442 5439 5435 5433 5430 5427 5424 5423 5420 5417 5415 5413 5411 5408 5408 5406 5406 5406 5405 5405 5407 5409 5412 5415 5418 5422 5426 5430 5433 5437 5441 5446 5450 5455 5460 5465 5469 5474 5479 5484 5489
5450 5447 5443 5440 5436 5434 5428 5425 5421 5418 5418 5411 5408 5405 5403 5400 5397 5396 5393 5392 5393 5392 5391 5392 5393 5395 5397 5400 5405 5409 5413 5417 5422 5426 5431 5435 5439 5444 5449 5454 5459 5464 5469 5474
5448 5444 5440 5436 5433 5429 5423 5419 5415 5409 5404 5400 5396 5391 5388 5385 5382 5380 5379 5377 5376 5376 5375 5375 5376 5378 5379 5382 5386 5390 5395 5397 5405 5409 5414 5419 5424 5428 5433 5438 5443 5448 5453 5458
5445 5441 5436 5432 5427 5421 5415 5410 5405 5398 5392 5386 5380 5375 5370 5368 5365 5361 5359 5358 5358 5356 5356 5356 5358 5360 5362 5364 5367 5372 5375 5378 5384 5390 5395 5401 5406 5411 5416 5421 5426 5431 5436 5441
5441 5436 5432 5425 5421 5414 5404 5398 5391 5385 5376 5369 5362 5357 5351 5346 5343 5340 5337 5336 5335 5336 5336 5337 5337 5340 5344 5347 5350 5354 5357 5360 5366 5370 5375 5380 5386 5391 5397 5403 5407 5412 5417 5422
5436 5430 5426 5420 5412 5407 5397 5387 5378 5370 5360 5352 5343 5334 5328 5323 5320 5316 5315 5313 5311 5311 5311 5311 5315 5318 5323 5326 5331 5335 5340 5343 5348 5353 5357 5362 5367 5372 5377 5383 5388 5392 5397 5402
5431 5424 5418 5412 5402 5392 5383 5373 5364 5355 5345 5335 5327 5320 5312 5305 5300 5296 5294 5291 5288 5287 5287 5287 5289 5292 5298 5303 5309 5315 5320 5325 5330 5335 5339 5345 5350 5355 5360 5365 5370 5374 5378 5383
Wind_Speed
39 34 34 37 41 41 50 53 55 56 53 62 62 64 64 64 65 65 66 65 62 62 63 65 68 71 71 71 72 71 68 62 60 58 56 58 57 56 54 45 43 58 48 56
42 41 39 38 38 39 39 43 45 48 54 57 57 57 58 61 62 63 65 64 62 61 63 65 66 70 74 74 74 74 72 68 64 61 60 57 58 54 57 55 48 49 48 50
44 44 42 43 44 45 45 45 45 46 46 52 53 56 58 59 59 58 60 64 63 62 65 65 65 67 70 74 76 76 75 71 67 65 63 62 52 58 59 57 55 54 57 56
42 45 43 38 39 40 40 41 43 45 46 48 49 53 52 56 56 57 59 61 62 63 63 64 65 65 68 71 76 77 76 75 71 68 66 65 66 60 61 61 59 51 60 65
34 34 33 32 35 34 35 38 40 41 41 44 47 51 52 53 55 52 55 58 60 61 62 64 64 64 66 70 74 78 77 75 73 69 68 68 68 64 62 64 63 63 47 53
22 23 26 28 30 31 34 34 36 39 40 46 43 47 51 53 51 54 53 56 58 60 61 63 63 65 66 68 72 75 77 76 75 71 69 68 69 68 65 66 68 67 70 67
20 21 25 26 29 31 32 34 35 37 41 43 40 42 48 49 52 53 51 53 55 57 59 61 63 64 65 67 69 72 74 74 75 72 69 67 68 69 68 66 66 69 65 59
17 19 22 24 27 29 29 31 33 35 35 36 35 38 44 44 46 49 49 47 51 52 55 57 61 61 64 66 67 69 70 70 71 72 71 68 68 66 68 67 67 67 70 63
14 14 17 19 22 24 27 28 31 33 31 30 31 27 29 30 34 38 41 42 43 47 49 52 55 55 59 61 63 65 68 68 67 69 70 68 68 67 67 66 66 64 66 70
12 13 14 16 18 20 23 26 27 29 32 33 28 30 29 26 32 33 35 38 38 40 43 47 50 51 53 55 57 59 61 64 65 66 67 68 68 67 67 67 68 70 70 68
13 14 12 14 15 17 19 22 23 24 26 28 35 33 31 37 32 30 34 36 37 37 39 41 44 46 49 50 50 53 55 58 61 63 65 66 67 67 67 66 65 66 67 68
13 13 13 12 14 15 16 18 20 23 27 29 29 36 28 22 30 31 33 35 38 35 35 39 38 42 43 48 48 48 49 53 56 59 61 63 65 66 66 66 66 67 68 68
11 11 12 12 12 13 13 15 18 21 24 29 33 34 39 39 28 22 28 28 32 36 33 36 41 38 43 45 49 51 52 52 51 52 55 58 60 62 64 65 66 66 66 66
9 10 12 12 13 12 13 14 14 18 22 27 35 33 37 38 42 42 37 31 31 31 35 34 37 42 40 42 48 50 52 53 54 54 52 52 54 57 60 60 61 62 62 63
9 9 9 11 13 14 14 14 14 16 18 24 29 34 38 38 35 35 32 35 37 36 36 37 35 40 41 41 41 47 49 53 53 53 55 55 54 53 53 54 56 59 59 59
9 9 9 10 11 11 13 13 15 16 17 20 23 29 33 36 39 42 35 35 37 39 39 38 39 40 39 44 44 42 43 47 51 52 53 54 57 57 55 54 54 54 55 56
12 10 9 7 11 10 9 10 13 17 18 20 21 23 27 32 36 39 43 46 42 39 42 43 39 43 42 43 42 45 45 43 43 47 51 51 52 53 54 55 56 56 55 54
14 13 11 10 9 9 10 10 11 15 17 19 21 23 23 26 31 35 41 45 48 53 47 43 42 42 42 43 47 49 47 47 47 46 45 48 47 48 50 51 53 53 53 53
16 15 14 13 13 14 11 14 15 17 15 20 22 23 25 27 29 32 35 39 44 50 54 58 55 52 49 47 46 46 48 52 52 51 51 50 51 51 52 52 52 52 53 53
15 15 15 16 17 18 17 16 19 21 19 21 23 26 27 29 32 33 35 36 38 43 47 53 58 62 62 58 56 52 51 50 51 53 55 56 56 57 56 55 54 54 54 54
17 17 17 18 20 20 21 24 26 28 29 29 31 32 32 33 36 37 40 40 40 42 45 49 52 56 60 65 65 65 62 59 57 56 55 55 56 57 58 58 59 60 59 59
21 21 22 22 23 25 27 30 32 34 37 37 38 40 42 44 45 45 44 45 48 49 49 51 51 53 55 58 62 64 67 70 69 66 63 61 60 60 59 59 60 60 61 62
25 27 28 28 29 31 33 35 37 40 42 45 47 48 50 49 51 55 56 56 55 55 57 58 59 58 57 58 59 60 62 66 68 70 72 73 71 69 67 66 66 65 65 65
28 29 29 31 32 35 40 41 44 45 47 48 49 49 51 52 53 53 56 60 63 65 64 63 64 63 62 62 62 60 59 61 62 63 66 69 70 72 73 74 74 74 74 73
33 33 30 31 36 36 40 44 46 46 48 49 51 52 52 51 50 51 52 53 56 61 66 70 71 69 66 66 65 64 63 62 61 59 58 58 59 60 63 66 68 69 70 72
35 35 36 38 41 44 45 46 48 49 48 46 43 41 43 45 46 47 47 49 52 55 58 62 66 72 73 72 68 65 66 65 63 62 60 59 58 56 56 56 55 56 57 58
Wind_Direction
262 257 255 252 246 243 246 242 242 238 242 241 239 241 239 240 240 239 238 236 234 237 240 242 243 244 243 242 245 246 248 245 241 239 237 236 237 240 241 244 242 239 249 254
256 258 257 256 256 253 254 254 247 249 248 244 247 243 247 242 241 242 242 241 238 238 240 243 243 243 244 242 242 244 246 245 243 241 238 238 236 234 238 231 238 222 239 238
253 252 249 251 253 254 253 250 249 244 241 243 241 241 243 240 241 241 241 241 239 236 239 241 245 243 242 242 242 242 244 245 243 240 239 236 239 235 235 235 241 247 244 248
251 251 252 251 249 245 245 239 237 238 241 242 244 243 243 245 242 242 241 242 241 238 237 239 241 242 240 240 240 241 243 244 243 241 239 239 238 236 237 235 234 250 250 245
242 245 243 238 241 242 242 242 244 244 249 248 250 252 245 250 245 246 247 245 244 243 241 241 243 242 240 239 240 241 241 243 244 242 240 238 240 235 236 237 241 233 242 242
240 236 239 243 243 246 248 249 251 252 254 251 255 257 250 253 247 249 248 249 248 247 244 241 244 242 239 239 239 240 241 241 243 243 242 241 240 240 238 240 238 242 248 251
257 252 254 254 254 252 252 254 253 253 253 260 257 255 255 257 254 252 251 251 249 248 246 243 241 243 240 238 238 239 240 240 241 242 242 241 240 240 240 240 239 238 245 252
262 255 257 256 255 255 249 249 249 252 254 256 250 251 255 256 258 257 255 253 251 249 247 245 243 241 239 237 237 239 239 239 239 240 241 241 241 241 241 241 243 242 243 245
273 268 261 256 253 253 251 247 247 248 249 247 243 249 253 250 249 251 250 250 247 246 245 244 241 240 238 237 238 238 238 238 238 238 238 239 241 241 242 241 242 241 243 246
280 273 267 264 262 257 254 252 248 246 240 231 224 231 241 245 250 249 248 246 245 241 242 239 238 237 237 237 238 239 239 239 239 239 239 238 238 240 240 240 241 242 246 249
283 278 270 267 262 256 250 250 250 246 244 240 232 236 246 244 243 244 245 244 242 241 240 239 237 236 235 236 238 240 239 239 240 240 240 240 240 240 239 241 242 243 244 247
283 277 276 265 259 257 255 250 245 241 234 233 233 227 233 234 236 244 249 246 241 241 240 235 234 234 234 233 234 236 240 243 240 241 241 241 242 242 243 242 241 240 244 248
283 275 273 275 268 263 261 256 249 244 238 231 233 236 236 235 239 243 239 241 240 241 240 240 232 232 234 234 234 234 234 236 240 242 242 242 242 243 244 245 246 247 247 248
291 283 281 285 284 276 271 267 259 251 244 237 233 236 240 245 250 253 254 249 249 239 236 240 237 235 233 234 234 235 236 237 237 238 240 241 242 243 244 245 246 247 249 249
310 296 286 283 281 280 279 274 268 261 256 248 247 244 242 242 245 246 250 251 252 250 247 239 241 236 235 236 236 235 235 235 236 237 238 239 240 240 242 243 244 244 246 247
332 314 301 291 286 284 282 279 273 269 264 259 257 252 250 248 247 239 238 239 244 248 247 245 243 240 238 237 236 237 235 236 236 236 236 237 238 239 239 239 241 242 243 244
8 3 349 333 308 298 290 284 279 272 270 267 265 261 258 254 251 249 246 242 239 239 244 247 247 244 241 240 238 237 237 236 236 236 236 236 236 237 238 240 242 242 242 242
10 4 356 350 338 327 320 301 288 280 275 275 274 271 267 261 255 252 249 247 245 243 243 241 242 246 244 242 240 238 238 238 237 236 235 232 231 234 236 238 241 242 242 242
12 9 2 353 344 333 326 311 304 294 285 282 280 276 272 269 265 260 254 249 246 246 245 244 244 243 242 244 244 242 240 239 239 238 237 236 235 235 236 236 238 239 241 242
7 2 356 344 340 336 329 316 309 304 303 292 282 279 274 268 265 263 261 259 256 250 246 246 246 245 245 244 242 241 240 239 239 239 239 240 241 240 240 240 239 239 240 241
354 351 345 340 333 331 318 314 310 306 303 295 289 282 276 272 268 265 263 258 254 255 253 249 247 246 246 246 245 244 243 242 240 239 239 239 239 239 239 240 240 240 240 241
341 339 335 331 325 322 317 313 310 304 301 297 291 285 280 277 272 266 261 259 259 255 249 249 248 247 247 247 245 245 245 245 243 242 242 241 240 240 239 239 239 239 239 240
338 334 330 326 323 321 314 311 307 304 302 299 294 290 285 280 273 269 266 263 257 253 253 252 250 247 246 245 245 246 246 245 245 245 245 244 244 245 245 244 243 242 242 243
335 330 328 324 323 320 316 314 310 308 303 300 296 291 285 280 276 272 267 264 262 261 258 256 254 252 249 247 247 245 246 247 246 246 247 247 246 247 247 248 249 249 249 249
337 334 333 328 325 321 316 315 314 311 307 303 299 294 291 287 283 278 273 269 264 261 258 256 255 253 253 251 248 248 246 247 247 246 247 247 247 247 247 248 248 249 250 250
338 336 336 336 332 330 327 323 320 318 313 306 302 298 295 292 289 284 279 273 268 264 260 257 255 253 251 250 249 247 247 247 247 248 248 247 247 247 247 247 247 247 247 248